Regional Weather Roundup
Issued by NWS

Home | Current Version | Previous Version | Text Only | Print | Product List | Glossary Off
Versions: 1 2 3 4 5 6 7 8 9 10 11 12 13 14 15 16 17 18 19 20 21 22 23 24 25 26 27 28 29 30 31 32 33 34 35 36 37 38 39 40 41 42 43 44 45 46 47 48 49 50

000
ASUS43 KOAX 251310
RWRNE

WEATHER ROUNDUP FOR NEBRASKA
NATIONAL WEATHER SERVICE OMAHA NE
800 AM CDT TUE APR 25 2017

NOTES: SATELLITE DATA IS BEING USED TO AUGMENT CLOUD COVER ABOVE
       12000 FEET.
       "FAIR" INDICATES FEW OR NO CLOUDS BELOW 12,000 FEET WITH NO
       SIGNIFICANT WEATHER AND/OR OBSTRUCTIONS TO VISIBILITY.

  * THESE STATIONS DO NOT REPORT WEATHER SUCH AS RAIN...SNOW OR FOG.

NEZ001>004-019>022-054>056-251400-
NEBRASKA PANHANDLE

CITY           SKY/WX    TMP DP  RH WIND       PRES   REMARKS
SCOTTSBLUFF    CLOUDY    44  40  85 E5        29.55R
ALLIANCE       CLOUDY    42  40  92 SE12      29.56R
CHADRON        LGT RAIN  37  35  92 NE18      29.60R FOG     WCI  27
KIMBALL        CLOUDY    41  41 100 NW3       29.57R
SIDNEY         CLOUDY    42  40  92 CALM      29.57S
$$

NEZ057>060-069>072-079>082-251400-
SOUTHWEST NEBRASKA

CITY           SKY/WX    TMP DP  RH WIND       PRES   REMARKS
NORTH PLATTE   CLOUDY    42  40  92 MISG      29.60R
IMPERIAL       LGT RAIN  46  44  93 N8        29.59R
LEXINGTON      RAIN      46  43  90 N13       29.57R
MCCOOK         CLOUDY    48  46  93 N14       29.56R
OGALLALA       RAIN      44  42  93 NE7       29.59R
$$

NEZ005>010-023>029-035>040-094-251400-
NORTH CENTRAL NEBRASKA

CITY           SKY/WX    TMP DP  RH WIND       PRES   REMARKS
VALENTINE      CLOUDY    35  31  85 NE13      29.65R WCI  26
AINSWORTH      FOG       34  34 100 N16       29.64R VSB 1/2 WCI  24
BROKEN BOW     LGT RAIN  41  39  93 N17       29.59R
O`NEILL        CLOUDY    38  36  92 N15       29.63R WCI  29
ORD            RAIN      40  37  89 N20G25    29.57R WCI  30
THEDFORD       RAIN      37  36  95 N8        29.64R WCI  31
$$

NEZ041-046>049-061>064-073>077-083>087-251400-
SOUTH CENTRAL NEBRASKA

CITY           SKY/WX    TMP DP  RH WIND       PRES   REMARKS
GRAND ISLAND   LGT RAIN  43  43 100 NE14      29.52F FOG
AURORA         RAIN      44  41  90 N13       29.53F
HASTINGS       CLOUDY    45  42  89 NE22      29.48F
HEBRON         CLOUDY    50  44  79 NE9       29.48R
HOLDREGE       CLOUDY    46  42  89 NW17G29   29.56R
KEARNEY *      CLOUDY    46  41  81 NE18      29.49S
YORK           CLOUDY    45  41  87 N15       29.53R
$$

NEZ011>018-030>034-042>045-251400-
NORTHEAST NEBRASKA

CITY           SKY/WX    TMP DP  RH WIND       PRES   REMARKS
NORFOLK        LGT RAIN  40  37  89 NW17      29.55F WCI  31
ALBION         RAIN      42  39  89 N16G22    29.53F
BLAIR          CLOUDY    47  41  81 N15       29.48F
FREMONT        CLOUDY    45  39  79 N8        29.53S
TEKAMAH        CLOUDY    45  38  76 N14       29.55R
WAYNE          LGT RAIN  41  40  99 N23       29.57S
$$

NEZ050>053-065>068-078-088>093-251400-
SOUTHEAST NEBRASKA

CITY           SKY/WX    TMP DP  RH WIND       PRES   REMARKS
LINCOLN        PTSUNNY   49  41  74 SE8       29.52R
OMAHA EPPLEY   CLOUDY    49  40  71 N20       29.45F
BEATRICE       PTSUNNY   50  46  84 NE7       29.47R
FALLS CITY     CLOUDY    56  50  80 E5        29.46R
NEBRASKA CITY  CLOUDY    53  43  69 N6        29.47R
PLATTSMOUTH    PTSUNNY   50  43  77 E5        29.48R
$$

NEZ044-045-051>053-067-251400-
OMAHA AREA

CITY           SKY/WX    TMP DP  RH WIND       PRES   REMARKS
OMAHA EPPLEY   CLOUDY    49  40  71 N20       29.45F
BLAIR          CLOUDY    47  41  81 N15       29.48F
FREMONT        CLOUDY    45  39  79 N8        29.53S
MILLARD        CLOUDY    51  44  76 NW7G16    29.46F
OFFUTT AFB     CLOUDY    50  42  75 N8G20     29.45S
PLATTSMOUTH    PTSUNNY   50  43  77 E5        29.48R
WAHOO          CLOUDY    47  40  76 N22       29.48F
$$




USA.gov is the U.S. government's official web portal to all federal, state and local government web resources and services.